Weather History for Elmendorf AFB, AK

Change the Weather History Date:

Monday, December 17, 2012

  Actual Average Record
Temperature  
Mean Temperature -10 °F -  
Max Temperature -3 °F 23 °F 45 °F (1952)
Min Temperature -16 °F 12 °F -21 °F (1980)
Degree Days  
Heating Degree Days 74    
Moisture  
Dew Point -15 °F    
Average Humidity 76    
Maximum Humidity 85    
Minimum Humidity 70    
Precipitation  
Precipitation 0.00 in - - ()
Snow  
Snow 0.00 in - - ()
Snow Depth 12.00 in    
Sea Level Pressure  
Sea Level Pressure 29.70 in    
Wind  
Wind Speed 3 mph (ESE)    
Max Wind Speed 10 mph    
Max Gust Speed -    
Visibility 4 miles    
Events Fog , Snow    
Averages and records for this station are not official NWS values.
T = Trace of Precipitation, MM = Missing Value Source: NWS Daily Summary

Daily Weather History Graph

Daily Weather History Graph

Search for Another Location

Airport:

Trip Planner

Search our weather history database for the weather conditions in past years. The results will help you decide how hot, cold, wet, or windy it might be!

Date:

Astronomy

Dec. 17, 2012 Rise Set
Actual Time 10:11 AM AKST 3:39 PM AKST
Civil Twilight 9:09 AM AKST 4:41 PM AKST
Nautical Twilight 8:09 AM AKST 5:41 PM AKST
Astronomical Twilight 7:15 AM AKST 6:35 PM AKST
Moon 12:00 PM AKST (12/17) 10:45 PM AKST (12/17)
Length of Visible Light 7h 32m
Length of Day
5h 27m
Waxing Crescent, 26% of the Moon is Illuminated
Dec 17
Waxing Crescent
Dec 19
First Quarter
Dec 28
Full
Jan 4
Last Quarter
Jan 11
New

Hourly Weather History & Observations

Time (AKST) Temp. Windchill Dew Point Humidity Pressure Visibility Wind Dir Wind Speed Gust Speed Precip Events Conditions
12:00 AM -5.8 °F - -9.4 °F 84% 29.67 in 0.5 mi Calm Calm - N/A Fog Fog
12:02 AM -5.8 °F -14.5 °F -11.2 °F 77% 29.67 in 0.5 mi ESE 3.5 mph - N/A   Haze
12:06 AM -5.8 °F - -11.2 °F 77% 29.67 in 0.2 mi Calm Calm - N/A   Haze
12:07 AM -5.8 °F - -11.2 °F 77% 29.67 in 0.0 mi Calm Calm - N/A   Haze
12:10 AM -5.8 °F -16.7 °F -11.2 °F 77% 29.67 in 0.2 mi ESE 4.6 mph - N/A Fog Fog
12:12 AM -5.8 °F -18.4 °F -11.2 °F 77% 29.67 in 0.2 mi ESE 5.8 mph - N/A Fog Fog
12:14 AM -7.6 °F -18.8 °F -13.0 °F 77% 29.67 in 0.2 mi East 4.6 mph - N/A Fog Fog
12:17 AM -7.6 °F -18.8 °F -13.0 °F 77% 29.68 in 0.2 mi East 4.6 mph - N/A Fog Fog
12:20 AM -7.6 °F - -13.0 °F 77% 29.68 in 0.2 mi Calm Calm - N/A Fog Fog
12:26 AM -5.8 °F - -11.2 °F 77% 29.68 in 0.2 mi Calm Calm - N/A Fog Fog
12:32 AM -7.6 °F -20.6 °F -13.0 °F 77% 29.68 in 0.2 mi ESE 5.8 mph - N/A Fog Fog
12:41 AM -9.4 °F -22.7 °F -14.8 °F 77% 29.69 in 0.2 mi East 5.8 mph - N/A Fog Fog
12:45 AM -7.6 °F -18.8 °F -13.0 °F 77% 29.69 in 0.5 mi East 4.6 mph - N/A   Unknown
12:49 AM -7.6 °F -18.8 °F -11.2 °F 84% 29.69 in 0.2 mi East 4.6 mph - N/A   Unknown
12:52 AM -5.8 °F -18.4 °F -11.2 °F 77% 29.69 in 0.2 mi East 5.8 mph - N/A Fog Fog
12:55 AM -5.1 °F -17.6 °F -9.8 °F 80% 29.69 in 0.2 mi East 5.8 mph - N/A Fog Fog
12:56 AM -4.0 °F -14.6 °F -9.4 °F 78% 29.69 in 0.2 mi East 4.6 mph - N/A Fog Fog
12:59 AM -4.0 °F -14.6 °F -7.6 °F 85% 29.69 in 0.2 mi East 4.6 mph - N/A Fog Fog
1:02 AM -4.0 °F - -7.6 °F 85% 29.69 in 0.2 mi Calm Calm - N/A Fog Fog
1:06 AM -4.0 °F -12.4 °F -9.4 °F 78% 29.69 in 0.2 mi East 3.5 mph - N/A Fog Fog
1:10 AM -4.0 °F - -9.4 °F 78% 29.69 in 0.2 mi Calm Calm - N/A Fog Fog
1:13 AM -4.0 °F -12.4 °F -9.4 °F 78% 29.69 in 0.2 mi East 3.5 mph - N/A Fog Fog
1:15 AM -4.0 °F -12.4 °F -9.4 °F 78% 29.69 in 0.2 mi East 3.5 mph - N/A Fog Fog
1:16 AM -4.0 °F - -9.4 °F 78% 29.69 in 0.2 mi Calm Calm - N/A Fog Fog
1:17 AM -4.0 °F - -9.4 °F 78% 29.69 in 0.2 mi Calm Calm - N/A Fog Fog
1:19 AM -4.0 °F - -9.4 °F 78% 29.69 in 0.2 mi Calm Calm - N/A Fog Fog
1:20 AM -5.8 °F - -9.4 °F 84% 29.69 in 0.2 mi Calm Calm - N/A Fog Fog
1:21 AM -5.8 °F - -11.2 °F 77% 29.69 in 0.2 mi Calm Calm - N/A Fog Fog
1:22 AM -5.8 °F - -11.2 °F 77% 29.69 in 0.5 mi Calm Calm - N/A Fog Fog
1:38 AM -5.8 °F - -11.2 °F 77% 29.70 in 10.0 mi Calm Calm - N/A   Partly Cloudy
1:55 AM -9.6 °F -21.1 °F -15.5 °F 75% 29.70 in 8.0 mi ESE 4.6 mph - N/A   Clear
2:55 AM -13.4 °F - -19.7 °F 73% 29.71 in 9.0 mi Calm Calm - N/A   Clear
3:55 AM -15.5 °F -25.6 °F -21.8 °F 73% 29.73 in 10.0 mi SE 3.5 mph - N/A   Clear
4:19 AM -14.8 °F -33.5 °F -22.0 °F 70% 29.73 in 10.0 mi ESE 9.2 mph - N/A Snow Light Snow
4:27 AM -13.0 °F -27.0 °F -18.4 °F 77% 29.73 in 5.0 mi East 5.8 mph - N/A   Haze
4:55 AM -12.5 °F - -18.4 °F 75% 29.74 in 10.0 mi Calm Calm - 0.00 in   Clear
5:55 AM -16.6 °F -31.3 °F -22.9 °F 73% 29.75 in 8.0 mi ESE 5.8 mph - N/A   Clear
6:55 AM -11.4 °F - -16.8 °F 77% 29.76 in 10.0 mi Calm Calm - N/A   Clear
7:55 AM -15.2 °F - -21.1 °F 75% 29.78 in 10.0 mi Calm Calm - N/A   Clear
8:55 AM -12.6 °F - -18.6 °F 75% 29.78 in 4.0 mi Calm Calm - 0.00 in   Haze
8:58 AM -11.2 °F - -18.4 °F 70% 29.78 in 2.5 mi Calm Calm - N/A   Haze
8:59 AM -11.2 °F - -16.6 °F 77% 29.78 in 1.8 mi Calm Calm - N/A   Haze
9:00 AM -11.2 °F - -16.6 °F 77% 29.78 in 1.5 mi Calm Calm - N/A   Haze
9:01 AM -11.2 °F - -16.6 °F 77% 29.78 in 1.2 mi Calm Calm - N/A   Haze
9:03 AM -11.2 °F - -16.6 °F 77% 29.78 in 1.5 mi Calm Calm - N/A   Haze
9:05 AM -11.2 °F -20.6 °F -18.4 °F 70% 29.78 in 1.2 mi East 3.5 mph - N/A Snow Light Snow
9:06 AM -13.0 °F -25.1 °F -18.4 °F 77% 29.78 in 1.0 mi East 4.6 mph - N/A Snow Light Snow
9:07 AM -13.0 °F -25.1 °F -18.4 °F 77% 29.78 in 0.8 mi East 4.6 mph - N/A Snow Light Snow
9:14 AM -14.8 °F -27.2 °F -22.0 °F 70% 29.78 in 0.8 mi East 4.6 mph - N/A Snow Light Snow
9:15 AM -14.8 °F -27.2 °F -22.0 °F 70% 29.78 in 0.8 mi East 4.6 mph - N/A   Haze
9:19 AM -14.8 °F -27.2 °F -22.0 °F 70% 29.78 in 1.0 mi ESE 4.6 mph - N/A   Clear
9:32 AM -16.6 °F -29.3 °F -23.8 °F 70% 29.78 in 3.0 mi East 4.6 mph - N/A   Haze
9:55 AM -10.3 °F -19.6 °F -15.7 °F 77% 29.78 in 10.0 mi East 3.5 mph - 0.00 in   Clear
10:38 AM -13.0 °F - -18.4 °F 77% 29.79 in 2.5 mi Calm Calm - N/A   Haze
10:40 AM -13.0 °F - -20.2 °F 70% 29.79 in 1.8 mi Calm Calm - N/A   Haze
10:41 AM -13.0 °F - -20.2 °F 70% 29.79 in 1.5 mi Calm Calm - N/A   Haze
10:44 AM -14.8 °F - -20.2 °F 77% 29.79 in 1.2 mi Calm Calm - N/A   Haze
10:53 AM -14.8 °F - -22.0 °F 70% 29.78 in 1.0 mi Calm Calm - N/A   Haze
10:55 AM -15.3 °F - -21.5 °F 74% 29.79 in 1.0 mi Calm Calm - N/A   Haze
10:56 AM -14.8 °F - -22.0 °F 70% 29.78 in 1.2 mi Calm Calm - N/A   Haze
10:58 AM -14.8 °F - -22.0 °F 70% 29.78 in 1.5 mi Calm Calm - N/A   Haze
10:59 AM -14.8 °F - -20.2 °F 77% 29.78 in 1.8 mi Calm Calm - N/A   Haze
11:01 AM -14.8 °F - -22.0 °F 70% 29.79 in 2.0 mi Calm Calm - N/A   Haze
11:08 AM -16.6 °F - -23.8 °F 70% 29.75 in 7.0 mi Calm Calm - N/A   Clear
11:10 AM -16.6 °F - -22.0 °F 76% 29.75 in 7.0 mi ESE 2.3 mph - N/A   Clear
11:55 AM -13.2 °F - -18.9 °F 75% 29.79 in 5.0 mi Calm Calm - N/A   Haze
12:47 PM -13.0 °F -25.1 °F -18.4 °F 77% 29.78 in 6.0 mi East 4.6 mph - N/A   Haze
3:55 PM -12.8 °F - -18.9 °F 74% 29.77 in 10.0 mi Calm Calm - N/A   Clear
4:20 PM -13.0 °F - -18.4 °F 77% 29.76 in 10.0 mi Calm Calm - N/A   Partly Cloudy
4:30 PM -14.8 °F -27.2 °F -20.2 °F 77% 29.75 in 10.0 mi East 4.6 mph - N/A   Mostly Cloudy
4:32 PM -13.0 °F -22.7 °F -20.2 °F 70% 29.75 in 10.0 mi East 3.5 mph - N/A   Mostly Cloudy
4:40 PM -13.0 °F -22.7 °F -18.4 °F 77% 29.76 in 10.0 mi East 3.5 mph - N/A   Mostly Cloudy
4:45 PM -13.0 °F -25.1 °F -18.4 °F 77% 29.75 in 10.0 mi East 4.6 mph - N/A   Overcast
4:52 PM -11.2 °F -24.8 °F -16.6 °F 77% 29.75 in 10.0 mi East 5.8 mph - N/A   Overcast
4:55 PM -10.3 °F -23.8 °F -15.5 °F 78% 29.74 in 10.0 mi East 5.8 mph - N/A   Overcast
5:20 PM -4.0 °F -17.8 °F -9.4 °F 78% 29.72 in 9.0 mi East 6.9 mph - N/A   Scattered Clouds
5:24 PM -7.6 °F -23.4 °F -13.0 °F 77% 29.72 in 2.5 mi ESE 8.1 mph - N/A   Haze
5:27 PM -9.4 °F -26.8 °F -16.6 °F 71% 29.72 in 1.8 mi ESE 9.2 mph - N/A   Haze
5:28 PM -9.4 °F -26.8 °F -16.6 °F 71% 29.72 in 1.5 mi ESE 9.2 mph - N/A   Haze
5:33 PM -9.4 °F -20.9 °F -16.6 °F 71% 29.71 in 1.8 mi ESE 4.6 mph - N/A   Haze
5:34 PM -9.4 °F -20.9 °F -16.6 °F 71% 29.72 in 2.0 mi ESE 4.6 mph - N/A   Haze
5:37 PM -9.4 °F - -16.6 °F 71% 29.72 in 3.0 mi Calm Calm - N/A   Haze
5:55 PM -6.7 °F -17.7 °F -11.7 °F 79% 29.70 in 9.0 mi ESE 4.6 mph - N/A   Clear
6:55 PM -3.1 °F -20.1 °F -7.6 °F 81% 29.68 in 10.0 mi NE 10.4 mph - N/A   Clear
7:55 PM -7.8 °F - -13.0 °F 78% 29.68 in 9.0 mi Calm Calm - N/A   Clear
8:33 PM -5.8 °F -21.2 °F -11.2 °F 77% 29.66 in 3.0 mi ESE 8.1 mph - N/A   Haze
8:42 PM -11.2 °F -29.0 °F -16.6 °F 77% 29.66 in 9.0 mi ESE 9.2 mph - N/A   Mostly Cloudy
8:55 PM -11.4 °F -25.1 °F -17.1 °F 76% 29.65 in 4.0 mi ESE 5.8 mph - N/A   Haze
9:15 PM -11.2 °F -24.8 °F -16.6 °F 77% 29.66 in 6.0 mi SE 5.8 mph - N/A   Haze
9:26 PM -11.2 °F -24.8 °F -16.6 °F 77% 29.65 in 8.0 mi ESE 5.8 mph - N/A   Mostly Cloudy
9:49 PM -9.4 °F -18.6 °F -14.8 °F 77% 29.64 in 8.0 mi ESE 3.5 mph - N/A   Scattered Clouds
9:55 PM -9.2 °F - -14.8 °F 76% 29.63 in 9.0 mi Calm Calm - N/A   Scattered Clouds
10:06 PM -5.8 °F -22.4 °F -11.2 °F 77% 29.63 in 8.0 mi ENE 9.2 mph - N/A Snow Light Snow
10:16 PM -4.0 °F -17.8 °F -9.4 °F 78% 29.62 in 9.0 mi Variable 6.9 mph - N/A   Scattered Clouds
10:55 PM -5.1 °F -17.6 °F -10.3 °F 78% 29.60 in 10.0 mi East 5.8 mph - 0.00 in   Partly Cloudy
11:15 PM -5.8 °F - -11.2 °F 77% 29.60 in 10.0 mi Calm Calm - N/A   Partly Cloudy
11:33 PM -9.4 °F -22.7 °F -14.8 °F 77% 29.59 in 8.0 mi SSE 5.8 mph - N/A   Partly Cloudy
11:37 PM -9.4 °F -18.6 °F -14.8 °F 77% 29.59 in 2.0 mi SE 3.5 mph - N/A   Haze
11:38 PM -9.4 °F - -14.8 °F 77% 29.59 in 1.8 mi Calm Calm - N/A   Haze
11:39 PM -9.4 °F - -14.8 °F 77% 29.59 in 1.5 mi Calm Calm - N/A   Haze
11:40 PM -9.4 °F - -14.8 °F 77% 29.60 in 1.2 mi Calm Calm - N/A   Haze
11:41 PM -9.4 °F - -14.8 °F 77% 29.60 in 1.0 mi Calm Calm - N/A   Haze
11:43 PM -9.4 °F - -14.8 °F 77% 29.60 in 0.8 mi Calm Calm - N/A   Haze
11:44 PM -9.4 °F - -14.8 °F 77% 29.59 in 0.8 mi Calm Calm - N/A   Haze
11:45 PM -9.4 °F -18.6 °F -14.8 °F 77% 29.59 in 0.5 mi ESE 3.5 mph - N/A   Haze
11:50 PM -9.4 °F -22.7 °F -14.8 °F 77% 29.59 in 0.5 mi ESE 5.8 mph - N/A   Haze
11:51 PM -9.4 °F -20.9 °F -14.8 °F 77% 29.59 in 0.5 mi ESE 4.6 mph - N/A   Haze
11:52 PM -9.4 °F -20.9 °F -14.8 °F 77% 29.59 in 0.5 mi ESE 4.6 mph - N/A   Haze
11:53 PM -9.4 °F -20.9 °F -14.8 °F 77% 29.59 in 0.5 mi ESE 4.6 mph - N/A   Haze
11:55 PM -9.2 °F -20.7 °F -14.6 °F 77% 29.59 in 0.5 mi ESE 4.6 mph - N/A   Haze
11:57 PM -9.4 °F -18.6 °F -14.8 °F 77% 29.59 in 0.2 mi ESE 3.5 mph - N/A   Haze